Location: Greenwich
(51.4790°N, 0.0090°E)
Time: 21:15:11
(UTC+01:00)

Vanguard 3 - Pass Details

Date: 18 April 2024
Orbit: 509 x 3233 km, 33.3° (Epoch: 25 May)

Event Time Altitude Azimuth Distance (km) Brightness Sun altitude
Exits shadow 04:38:31 - 203° (SSW) 5,635 10.9 -11.7°
Reaches altitude 10° 04:42:58 10° 190° (S) 4,646 10.6 -11.2°
Maximum altitude 04:48:32 14° 163° (SSE) 3,726 10.4 -10.4°
Drops below altitude 10° 04:53:01 10° 134° (SE) 3,570 10.6 -9.8°
Sets 04:57:12 0° 111° (ESE) 4,048 11.3 -9.3°
